Dewpoint
53 53 53 54 54 55 55 56 56 57 57 57 57 58 59 59 58 50 33 50 62 71 74 62 60 56 56 46 45 49 47 42 43 45 46 48 48 52 52 51 53 52 53 58 59
53 53 53 53 54 55 55 56 56 57 57 57 57 58 59 59 47 29 41 60 70 72 66 52 46 47 41 37 41 43 40 41 43 44 45 45 46 49 49 49 54 56 58 59 59
52 53 53 53 54 54 55 56 56 56 56 56 57 58 59 58 39 35 54 57 72 72 56 48 40 40 34 35 37 41 39 38 40 45 45 46 46 47 46 47 52 56 59 60 60
52 52 52 53 54 54 55 55 56 56 56 56 57 58 59 49 27 45 62 66 73 64 49 42 38 36 35 33 35 37 37 36 36 39 45 46 47 46 47 48 50 58 61 60 61
52 52 52 53 54 54 55 55 55 55 55 56 57 58 51 32 20 54 65 69 64 61 42 36 32 35 35 31 33 30 33 36 39 38 46 48 47 47 46 52 53 58 61 61 59
52 52 52 54 54 54 55 55 55 55 55 56 57 58 48 23 30 44 49 57 52 51 38 33 32 34 33 31 31 28 33 37 40 42 45 45 46 48 51 53 56 56 59 60 59
52 52 53 54 54 54 54 54 54 54 55 56 57 53 30 22 30 45 49 48 49 43 35 34 32 30 31 30 31 28 31 32 39 41 43 43 50 45 52 53 56 56 58 59 58
53 53 53 54 54 54 54 54 53 55 57 57 58 49 23 19 27 28 41 44 45 43 33 29 31 32 33 32 30 26 29 30 36 35 36 34 39 48 52 52 54 54 56 58 57
53 53 54 54 54 54 54 53 54 57 57 57 52 38 12 25 12 25 26 27 27 30 29 28 31 36 34 30 29 26 26 28 31 33 28 26 29 37 49 51 53 54 55 56 57
53 53 54 54 54 54 53 53 56 57 55 46 38 27 20 8 12 20 24 23 24 27 26 26 33 32 30 27 26 28 25 27 28 30 27 26 22 22 36 46 52 55 55 56 57
53 54 54 53 53 53 51 47 44 41 39 30 19 15 16 19 24 23 23 22 23 22 25 28 29 27 26 28 25 27 31 27 27 29 26 27 24 22 25 40 46 54 55 56 57
53 53 52 52 52 52 50 39 37 39 30 26 27 24 26 26 15 13 21 20 19 18 19 19 20 23 25 25 26 27 27 28 27 28 27 26 26 25 24 31 37 44 54 55 57
53 52 52 52 51 50 43 38 40 39 33 23 21 17 20 21 15 12 16 17 14 13 13 12 13 17 18 23 21 20 21 24 26 25 26 26 25 26 25 30 35 36 41 53 56
52 52 52 51 47 40 38 41 41 41 28 20 20 20 22 19 15 16 13 11 9 8 8 9 10 7 13 16 15 16 16 17 17 22 18 23 16 20 23 23 29 30 38 42 54
52 51 51 50 44 37 42 39 39 39 20 17 17 23 17 18 18 17 10 9 9 7 5 4 4 3 4 10 11 9 13 12 18 15 14 17 17 20 21 18 23 27 28 33 42
51 51 50 49 44 41 41 39 37 24 16 18 17 15 17 19 12 17 12 13 9 7 5 4 4 4 5 5 4 10 8 10 11 8 6 11 14 18 17 17 20 22 21 39 41
51 50 50 47 35 41 41 36 23 16 21 19 17 14 13 10 10 12 11 9 8 5 5 5 2 5 5 3 5 5 5 2 3 3 3 10 13 17 15 14 15 16 25 38 46
50 50 51 43 41 42 40 29 20 17 15 19 19 18 12 12 12 10 12 10 10 9 5 5 4 5 5 2 2 6 1 -1 4 4 7 13 15 15 13 11 10 16 31 37 43
50 48 43 41 43 43 34 20 15 20 21 18 17 16 16 13 14 12 12 11 10 9 5 6 7 9 8 7 5 1 4 5 0 1 2 7 15 13 13 11 13 23 17 19 40
48 39 36 40 42 38 30 21 21 27 26 22 15 15 15 15 12 13 12 12 13 13 12 9 11 11 7 8 7 5 4 3 -0 0 6 5 7 9 11 13 16 17 17 23 29
49 36 38 41 39 33 22 16 22 28 29 24 18 18 16 15 13 12 14 20 23 22 22 17 12 11 12 10 6 8 3 3 3 3 4 5 8 12 15 17 15 18 28 29 31
46 35 36 39 29 26 16 20 32 27 28 26 29 21 16 17 18 15 14 18 26 27 20 20 16 13 12 14 11 9 8 2 -1 3 3 5 5 18 18 18 20 26 34 38 39
44 38 39 39 32 20 26 25 28 26 26 26 24 23 22 22 20 20 18 28 30 27 26 30 18 12 13 13 14 13 10 6 6 5 4 4 9 12 18 21 28 32 35 40 42
42 34 37 36 36 31 24 20 24 29 27 27 26 26 24 23 24 26 23 25 30 29 36 30 21 16 13 18 25 23 14 11 8 6 4 5 6 14 15 19 26 29 35 40 43
40 38 38 31 29 29 28 28 22 25 26 28 27 26 26 24 23 24 23 24 28 37 33 28 22 21 20 20 22 22 24 21 16 13 9 7 7 10 14 24 31 29 36 39 44
39 35 31 32 36 31 30 29 27 25 28 25 26 27 27 26 26 27 28 27 26 32 33 30 26 25 23 24 26 24 23 23 22 19 18 14 12 16 19 28 29 35 40 38 46
39 37 34 31 27 26 24 25 28 29 31 30 31 29 28 29 31 31 30 27 26 28 28 26 24 24 25 25 25 24 21 21 21 22 23 20 21 21 22 27 33 39 37 40 45
Wind_Speed
14 14 14 14 15 16 16 16 17 17 16 17 18 19 19 20 24 7 6 10 4 20 10 9 7 8 10 5 5 9 13 15 18 17 10 5 8 7 2 10 7 3 5 29 26
15 15 15 15 15 16 16 16 17 17 17 17 18 19 19 18 10 12 4 10 18 19 10 9 5 4 9 3 4 8 10 10 9 11 9 16 6 6 7 6 9 8 20 26 26
15 16 16 16 16 16 16 16 16 18 18 18 18 19 19 18 9 7 4 10 19 21 13 8 7 8 7 2 2 2 9 8 8 11 9 10 4 3 3 8 11 12 18 24 24
16 16 16 16 16 16 17 17 16 17 18 19 18 19 19 7 1 7 5 12 18 15 12 8 6 9 6 6 3 5 7 8 7 4 5 7 4 4 6 10 5 17 19 23 24
16 16 16 16 16 16 16 17 16 17 18 19 19 17 10 9 2 9 8 12 16 14 11 8 8 9 8 6 8 5 9 8 7 1 1 2 5 5 5 5 6 18 20 21 21
16 16 17 18 18 17 16 16 17 17 17 18 17 17 8 12 4 3 11 16 15 15 12 8 6 9 12 4 8 9 8 5 3 2 4 9 11 9 9 8 13 17 19 20 20
15 17 18 19 18 18 18 18 18 17 16 16 13 8 10 3 2 5 12 17 16 14 11 6 7 11 12 9 6 9 10 7 6 3 4 9 21 15 11 11 14 17 19 20 19
17 17 17 19 19 20 20 20 18 15 14 13 9 9 5 4 0 5 10 14 13 10 8 9 10 13 15 8 13 11 9 9 7 9 3 15 6 13 11 12 14 16 18 20 19
16 17 18 19 19 20 21 21 15 12 7 7 6 8 6 4 10 10 10 13 12 10 9 9 12 15 14 13 16 12 12 3 2 2 8 7 9 10 14 14 14 16 19 20 20
16 17 18 19 19 21 22 13 4 5 7 8 8 7 7 9 12 8 9 7 10 9 10 11 10 17 18 17 17 8 5 6 5 4 10 13 8 5 16 15 17 17 20 22 23
16 16 16 17 18 19 16 4 6 7 12 7 2 2 4 5 4 11 12 11 11 11 16 16 17 19 17 16 14 18 11 11 11 4 9 14 13 11 2 16 14 20 20 22 23
17 17 16 17 18 18 8 7 7 6 7 8 7 6 4 4 10 15 15 14 15 17 18 19 17 19 18 13 15 12 16 17 14 7 10 15 15 17 3 5 17 17 21 21 24
17 17 17 18 19 7 10 6 5 6 8 8 7 11 9 11 10 18 18 21 16 18 20 17 19 3 13 10 15 18 18 18 17 11 15 21 17 19 9 7 6 7 13 23 24
15 16 18 23 5 2 4 1 5 3 7 12 11 9 9 10 8 4 19 18 17 18 20 18 17 16 12 16 16 21 12 13 11 13 16 10 14 7 9 4 14 10 12 15 24
14 14 16 8 12 7 6 4 3 5 6 10 10 8 13 16 15 13 14 15 18 16 11 17 15 16 16 18 15 16 11 15 12 16 20 21 12 13 9 9 6 6 6 4 15
14 14 15 6 8 5 3 3 6 8 3 8 9 12 16 14 10 11 13 12 12 16 14 20 13 12 15 16 17 18 11 12 15 17 20 22 19 19 8 5 7 10 11 6 6
14 12 9 9 2 1 6 7 8 9 5 8 15 15 18 11 12 13 17 17 13 12 19 19 21 17 16 14 12 15 17 17 16 17 18 19 17 9 8 9 12 8 8 2 4
13 11 11 10 5 6 9 11 9 5 6 5 6 15 15 14 11 14 14 17 18 17 16 10 14 20 16 17 19 15 18 19 14 15 15 20 8 12 11 4 8 10 4 2 5
12 7 9 8 8 7 11 13 5 4 4 8 10 12 11 9 7 13 13 15 15 13 16 6 9 6 5 12 16 20 21 16 24 23 19 15 9 10 10 11 4 5 5 6 2
7 10 7 7 7 9 12 18 2 5 4 8 14 14 13 15 12 10 15 8 5 6 11 15 13 12 11 10 12 16 20 13 19 20 20 12 12 11 1 2 5 7 7 6 9
8 8 9 9 7 10 14 9 4 6 6 8 11 4 14 8 13 11 10 9 3 8 7 14 14 8 9 12 17 13 15 18 23 17 17 17 16 8 12 5 4 3 6 9 8
12 6 11 9 12 14 17 2 3 8 8 7 9 9 9 8 9 11 7 1 6 7 11 9 14 17 17 17 8 12 14 17 22 19 17 18 17 11 5 6 1 5 7 9 8
10 7 8 9 10 11 4 8 8 7 9 8 9 9 5 6 8 7 5 11 0 10 4 10 12 18 17 22 18 11 18 18 19 23 20 19 10 19 14 7 8 6 8 12 11
7 9 8 12 13 12 6 12 13 5 4 8 8 2 8 11 7 4 8 9 5 9 10 8 17 22 22 14 6 16 14 15 20 19 18 16 19 9 10 12 3 6 8 11 14
7 2 7 10 11 9 3 3 12 8 12 8 9 12 11 13 11 10 13 10 10 10 8 16 21 22 21 22 18 14 21 22 16 18 26 24 22 16 13 10 8 2 10 7 11
7 5 5 8 1 6 7 9 11 7 5 12 13 11 8 12 13 12 6 4 8 9 9 14 21 19 25 26 19 28 20 23 23 22 21 23 27 23 12 9 5 6 7 8 7
4 3 7 5 10 10 9 8 8 2 7 10 6 3 11 5 12 8 14 15 16 11 14 17 19 20 23 22 21 26 25 25 23 27 22 25 25 19 19 14 5 1 6 7 8
Wind_Direction
346 344 343 343 340 339 337 336 335 334 330 327 325 323 323 322 310 233 250 81 175 166 219 184 216 226 245 268 253 271 247 59 31 50 84 104 106 56 266 112 26 60 143 143 150
342 342 342 340 339 336 334 334 333 329 327 326 324 321 321 325 287 246 88 146 159 165 202 205 200 222 242 240 183 301 47 29 9 8 12 99 25 80 136 87 103 93 105 140 155
340 340 339 339 335 333 331 330 330 326 324 323 322 319 318 318 261 113 116 165 177 184 246 266 293 272 296 255 48 339 21 360 15 28 356 53 132 80 7 122 111 137 144 153 160
337 337 334 335 331 329 328 328 328 323 319 318 317 316 313 268 223 94 137 174 189 209 257 248 262 272 307 17 51 318 359 0 351 9 337 53 51 76 45 63 55 137 156 164 167
334 332 333 330 328 327 326 324 323 318 314 313 312 317 306 221 81 125 153 170 186 219 244 244 284 295 318 352 325 340 5 340 11 28 23 189 98 54 96 102 126 135 157 173 177
331 330 331 327 326 325 322 319 316 312 308 304 305 313 249 246 68 123 167 168 193 215 232 255 300 333 286 319 316 339 335 329 37 72 147 259 145 200 110 136 130 150 162 176 183
329 329 329 324 324 323 319 316 312 306 297 290 292 295 259 355 58 136 171 191 206 220 252 241 300 290 328 301 350 309 286 183 43 7 340 310 314 114 123 149 155 166 170 176 187
326 329 326 323 323 321 316 314 307 296 286 270 271 266 259 81 212 195 186 193 215 232 266 296 289 276 276 301 271 253 253 235 78 349 17 307 103 96 148 172 170 175 176 180 184
327 327 324 322 321 316 312 309 293 290 249 229 239 234 214 135 207 203 195 197 202 218 238 282 272 262 282 246 264 203 271 37 176 107 334 316 333 154 169 177 177 186 184 185 186
326 323 323 321 318 317 313 290 303 252 221 224 266 247 205 217 172 195 193 250 199 209 226 239 246 253 238 254 257 312 235 177 270 342 321 303 295 304 168 198 182 193 194 192 190
325 322 324 321 318 319 317 213 213 193 213 298 206 302 119 160 175 212 185 207 214 220 227 207 236 243 246 261 267 292 298 284 277 328 299 303 308 309 197 175 211 186 206 197 198
325 324 322 316 312 311 277 263 34 346 252 220 243 263 248 277 196 203 183 202 209 223 224 247 231 258 269 270 290 289 261 267 272 268 273 297 295 290 285 236 191 208 191 209 199
324 322 319 315 314 276 259 36 334 311 251 152 199 212 189 206 223 192 195 209 215 231 242 241 250 287 268 264 257 256 262 269 275 307 291 268 267 256 207 201 197 242 211 190 205
322 320 319 317 284 159 212 44 305 289 254 147 186 182 182 222 222 167 193 212 232 242 235 249 250 266 254 255 260 266 260 272 277 274 266 240 282 278 254 240 204 221 183 207 191
319 317 312 313 316 229 54 324 313 240 235 139 134 119 174 211 120 190 200 219 237 227 251 247 237 244 253 255 264 270 308 291 260 261 258 264 247 272 261 247 235 224 182 264 205
316 314 311 226 231 311 291 305 240 229 202 150 145 179 180 212 207 137 183 237 232 258 234 256 280 260 258 259 245 259 256 261 258 252 254 251 258 249 269 331 317 319 335 54 251
311 301 281 308 53 329 278 236 221 257 123 153 179 165 194 185 183 181 195 200 214 216 228 228 243 226 243 253 230 245 239 249 232 225 244 244 244 283 311 317 284 325 307 112 216
306 294 211 257 310 266 242 229 250 36 199 119 173 183 207 175 197 196 188 219 218 256 284 248 260 207 207 232 258 208 242 253 256 260 264 211 209 249 257 309 302 266 176 214 230
304 207 216 169 209 245 239 223 256 193 99 193 184 200 202 189 273 209 222 234 222 209 254 307 234 112 257 251 232 247 250 263 275 276 275 271 202 182 236 253 211 305 49 0 140
244 204 146 155 186 231 237 249 33 358 269 270 208 208 197 201 214 197 194 204 237 262 258 281 284 210 188 223 240 257 272 254 230 259 270 266 236 250 196 169 357 272 29 23 1
250 211 130 177 214 225 230 231 191 185 238 246 253 210 260 183 224 195 187 144 272 169 260 274 262 250 152 228 255 195 238 244 277 264 255 246 260 337 176 118 280 352 30 15 359
267 194 148 192 212 224 242 226 25 189 200 246 294 286 243 226 223 255 230 278 129 292 240 223 293 264 234 240 226 292 283 227 239 239 262 289 292 92 88 134 165 28 41 32 6
260 113 168 219 239 201 156 210 231 206 210 212 232 248 241 241 251 264 224 88 139 264 307 335 238 259 249 243 196 239 256 260 275 280 258 264 243 180 150 166 104 59 37 47 19
278 178 162 213 272 292 174 207 199 226 264 266 278 253 240 252 233 253 242 170 196 272 38 310 275 279 283 315 225 290 242 259 270 266 267 253 262 167 219 158 136 50 49 51 37
242 318 360 210 203 239 216 154 225 184 236 228 217 251 238 245 230 230 248 255 197 161 244 246 265 274 281 282 290 280 280 287 251 262 274 277 265 222 236 117 89 351 34 36 46
312 305 201 292 191 234 163 210 225 209 254 217 243 217 253 258 274 286 292 273 271 188 221 256 260 266 274 284 280 278 265 273 265 271 266 270 279 290 305 131 192 54 353 348 40
360 258 280 140 243 229 244 233 235 318 257 288 319 317 255 338 352 333 310 298 294 278 277 287 289 295 281 285 272 256 257 250 262 272 263 258 259 262 280 322 126 77 309 1 17